Anniston, AL

12:26 AM CST on November 20, 2019 (GMT -0600)
Anniston Metro

Weather History for KANB - September, 2019

Change the Weather History Date:

Saturday, September 28, 2019

  Actual Average Record
Temperature  
Mean Temperature 83 °F 69 °F  
Max Temperature 94 °F 80 °F 95 °F (1954)
Min Temperature 71 °F 58 °F 41 °F (1993)
Degree Days  
Heating Degree Days 0    
Month to date heating degree days 0  
Since 1 July heating degree days 0  
Cooling Degree Days 18    
Growing Degree Days 32 (Base 50)    
Moisture  
Dew Point 69 °F    
Average Humidity 66    
Maximum Humidity 93    
Minimum Humidity 39    
Precipitation  
Precipitation 0.00 in 0.10 in 2.46 in (1963)
Month to date precipitation 0.56 2.72  
Year to date precipitation 39.73 37.64  
Sea Level Pressure  
Sea Level Pressure 30.06 in    
Wind  
Wind Speed 4 mph (NE)    
Max Wind Speed 10 mph    
Max Gust Speed 13 mph    
Visibility 10 miles    
Events      
T = Trace of Precipitation, MM = Missing Value Source: NWS Daily Summary

Daily Weather History Graph

Daily Weather History Graph

Search for Another Location

Airport or City:

Astronomy

Sep. 28, 2019 Rise Set
Actual Time 6:35 AM CDT 6:32 PM CDT
Civil Twilight 6:10 AM CDT 6:56 PM CDT
Nautical Twilight 5:41 AM CDT 7:25 PM CDT
Astronomical Twilight 5:12 AM CDT 7:54 PM CDT
Moon 6:15 AM CDT (9/28) 6:55 PM CDT (9/28)
Length of Visible Light 12h 46m
Length of Day
11h 56m
Waning Crescent, 0% of the Moon is Illuminated
Sep 28
Waning Crescent
Sep 28
New
Oct 5
First Quarter
Oct 13
Full
Oct 21
Last Quarter

Hourly Weather History & Observations

Time (CDT) Temp. Heat Index Dew Point Humidity Pressure Visibility Wind Dir Wind Speed Gust Speed Precip Events Conditions
12:53 AM 75.0 °F - 71.1 °F 87% 29.96 in 10.0 mi ENE 9.2 mph - N/A   Overcast
1:53 AM 75.0 °F - 71.1 °F 87% 29.98 in 10.0 mi NE 5.8 mph - N/A   Mostly Cloudy
2:53 AM 73.9 °F - 70.0 °F 87% 29.97 in 10.0 mi NE 5.8 mph - N/A   Clear
3:53 AM 73.9 °F - 70.0 °F 87% 29.99 in 10.0 mi ENE 4.6 mph - N/A   Clear
4:53 AM 73.0 °F - 70.0 °F 90% 30.01 in 10.0 mi ENE 3.5 mph - N/A   Clear
5:53 AM 73.0 °F - 70.0 °F 90% 30.03 in 10.0 mi Calm Calm - N/A   Clear
6:53 AM 72.0 °F - 70.0 °F 93% 30.06 in 8.0 mi Calm Calm - N/A   Overcast
7:53 AM 73.9 °F - 71.1 °F 91% 30.08 in 9.0 mi ENE 3.5 mph - N/A   Mostly Cloudy
8:53 AM 75.9 °F - 71.1 °F 85% 30.11 in 10.0 mi East 3.5 mph - N/A   Mostly Cloudy
9:53 AM 80.1 °F 83.6 °F 71.1 °F 74% 30.12 in 10.0 mi ENE 4.6 mph - N/A   Partly Cloudy
10:53 AM 84.9 °F 90.7 °F 72.0 °F 65% 30.12 in 10.0 mi Variable 3.5 mph - N/A   Mostly Cloudy
11:53 AM 89.1 °F 92.1 °F 66.9 °F 48% 30.11 in 10.0 mi North 8.1 mph - N/A   Mostly Cloudy
12:53 PM 90.0 °F 92.8 °F 66.9 °F 46% 30.09 in 10.0 mi NNW 3.5 mph - N/A   Mostly Cloudy
1:53 PM 91.9 °F 94.5 °F 66.0 °F 42% 30.07 in 10.0 mi Variable 5.8 mph - N/A   Scattered Clouds
2:53 PM 93.0 °F 95.0 °F 64.9 °F 39% 30.06 in 10.0 mi NNE 4.6 mph - N/A   Clear
3:53 PM 93.0 °F 95.9 °F 66.0 °F 41% 30.06 in 10.0 mi East 4.6 mph - N/A   Clear
4:53 PM 91.9 °F 94.1 °F 64.9 °F 41% 30.05 in 10.0 mi North 5.8 mph - N/A   Partly Cloudy
5:53 PM 90.0 °F 92.4 °F 66.0 °F 45% 30.06 in 10.0 mi North 4.6 mph - N/A   Clear
6:53 PM 82.0 °F 85.5 °F 69.1 °F 65% 30.07 in 10.0 mi Calm Calm - N/A   Clear
7:53 PM 81.0 °F 84.1 °F 69.1 °F 67% 30.08 in 10.0 mi East 3.5 mph - N/A   Clear
8:53 PM 80.1 °F 82.9 °F 69.1 °F 69% 30.09 in 10.0 mi ENE 4.6 mph - N/A   Clear
9:53 PM 78.1 °F - 70.0 °F 76% 30.09 in 10.0 mi ENE 3.5 mph - N/A   Clear
10:53 PM 79.0 °F - 70.0 °F 74% 30.09 in 10.0 mi NE 4.6 mph - N/A   Clear
11:53 PM 77.0 °F - 70.0 °F 79% 30.10 in 10.0 mi ENE 5.8 mph - N/A   Clear